Location: Patterson (historical)
(35.1418°N, 90.5529°W)
Time: 02:21:10
(UTC+00:00)

OAO 3 Copernicus - Pass Details

Date: 11 December 2025
Orbit: 689 x 698 km, 35.0° (Epoch: 15 January)

Event Time Altitude Azimuth Distance (km) Brightness Sun altitude
Exits shadow 12:25:10 - 273° (W) 2,364 6.4 -7.4°
Reaches altitude 10° 12:25:46 10° 273° (W) 2,138 6.2 -7.3°
Maximum altitude 12:30:47 87° 184° (S) 693 4.3 -6.3°
Drops below altitude 10° 12:35:47 10° 96° (E) 2,131 8.3 -5.4°
Sets 12:38:11 0° 96° (E) 3,046 9.3 -4.9°
